Time,TemperatureF,DewpointF,PressureIn,WindDirection,WindDirectionDegrees,WindSpeedMPH,WindSpeedGustMPH,Humidity,HourlyPrecipIn,Conditions,Clouds,dailyrainin,SoftwareType,DateUTC
2013-09-02 00:00:00,62.6,53.8,29.82,N/A,-737280,0.0,0.0,73,0.00,,,0.00,Wunderground PWS Mod,2013-09-02 07:00:00,
2013-09-02 00:10:00,62.1,54.4,29.82,N/A,-737280,0.0,0.0,76,0.00,,,0.00,Wunderground PWS Mod,2013-09-02 07:10:00,
2013-09-02 00:20:00,61.8,53.4,29.82,N/A,-737280,0.0,0.0,74,0.00,,,0.00,Wunderground PWS Mod,2013-09-02 07:20:00,
2013-09-02 00:30:00,61.3,53.7,29.82,N/A,-737280,0.0,0.0,76,0.00,,,0.00,Wunderground PWS Mod,2013-09-02 07:30:00,
2013-09-02 00:40:00,61.3,54.0,29.82,N/A,-737280,0.0,0.0,77,0.00,,,0.00,Wunderground PWS Mod,2013-09-02 07:40:00,
2013-09-02 00:50:00,61.5,53.9,29.82,N/A,-737280,0.0,0.0,76,0.00,,,0.00,Wunderground PWS Mod,2013-09-02 07:50:00,
2013-09-02 01:00:00,61.3,53.7,29.82,N/A,-737280,0.0,0.0,76,0.00,,,0.00,Wunderground PWS Mod,2013-09-02 08:00:00,
2013-09-02 01:10:00,60.9,55.0,29.82,N/A,-737280,0.0,0.0,81,0.00,,,0.00,Wunderground PWS Mod,2013-09-02 08:10:00,
2013-09-02 01:20:00,60.9,55.4,29.82,N/A,-737280,0.0,0.0,82,0.00,,,0.00,Wunderground PWS Mod,2013-09-02 08:20:00,
2013-09-02 01:30:00,60.7,55.2,29.83,N/A,-737280,0.0,0.0,82,0.00,,,0.00,Wunderground PWS Mod,2013-09-02 08:30:00,
2013-09-02 01:40:00,61.0,54.1,29.83,N/A,-737280,0.0,0.0,78,0.00,,,0.00,Wunderground PWS Mod,2013-09-02 08:40:00,
2013-09-02 01:50:00,60.7,55.2,29.83,N/A,-737280,0.0,0.0,82,0.00,,,0.00,Wunderground PWS Mod,2013-09-02 08:50:00,
2013-09-02 02:00:00,60.5,54.0,29.82,N/A,-737280,0.0,0.0,79,0.00,,,0.00,Wunderground PWS Mod,2013-09-02 09:00:00,
2013-09-02 02:10:00,60.5,53.6,29.82,N/A,-737280,0.0,0.0,78,0.00,,,0.00,Wunderground PWS Mod,2013-09-02 09:10:00,
2013-09-02 02:20:00,60.9,53.6,29.82,N/A,-737280,0.0,0.0,77,0.00,,,0.00,Wunderground PWS Mod,2013-09-02 09:20:00,
2013-09-02 02:30:00,61.0,52.7,29.82,N/A,-737280,0.0,0.0,74,0.00,,,0.00,Wunderground PWS Mod,2013-09-02 09:30:00,
2013-09-02 02:40:00,61.5,52.4,29.82,N/A,-737280,0.0,0.0,72,0.00,,,0.00,Wunderground PWS Mod,2013-09-02 09:40:00,
2013-09-02 02:50:00,61.2,52.1,29.82,N/A,-737280,0.0,0.0,72,0.00,,,0.00,Wunderground PWS Mod,2013-09-02 09:50:00,
2013-09-02 03:00:00,61.2,52.5,29.82,N/A,-737280,0.0,0.0,73,0.00,,,0.00,Wunderground PWS Mod,2013-09-02 10:00:00,
2013-09-02 03:10:00,60.7,52.4,29.82,N/A,-737280,0.0,0.0,74,0.00,,,0.00,Wunderground PWS Mod,2013-09-02 10:10:00,
2013-09-02 03:20:00,60.4,52.4,29.82,N/A,-737280,0.0,0.0,75,0.00,,,0.00,Wunderground PWS Mod,2013-09-02 10:20:00,
2013-09-02 03:30:00,59.9,53.0,29.82,N/A,-737280,0.0,0.0,78,0.00,,,0.00,Wunderground PWS Mod,2013-09-02 10:30:00,
2013-09-02 03:40:00,59.9,52.7,29.82,N/A,-737280,0.0,0.0,77,0.00,,,0.00,Wunderground PWS Mod,2013-09-02 10:40:00,
2013-09-02 03:50:00,60.2,52.6,29.82,N/A,-737280,0.0,0.0,76,0.00,,,0.00,Wunderground PWS Mod,2013-09-02 10:50:00,
2013-09-02 04:00:00,60.4,52.8,29.82,N/A,-737280,0.0,0.0,76,0.00,,,0.00,Wunderground PWS Mod,2013-09-02 11:00:00,
2013-09-02 04:10:00,60.5,52.5,29.82,N/A,-737280,0.0,0.0,75,0.00,,,0.00,Wunderground PWS Mod,2013-09-02 11:10:00,
2013-09-02 04:20:00,60.4,52.4,29.82,N/A,-737280,0.0,0.0,75,0.00,,,0.00,Wunderground PWS Mod,2013-09-02 11:20:00,
2013-09-02 04:30:00,60.2,52.6,29.82,N/A,-737280,0.0,0.0,76,0.00,,,0.00,Wunderground PWS Mod,2013-09-02 11:30:00,
2013-09-02 04:40:00,60.1,52.1,29.82,N/A,-737280,0.0,0.0,75,0.00,,,0.00,Wunderground PWS Mod,2013-09-02 11:40:00,
2013-09-02 04:50:00,60.2,52.6,29.82,N/A,-737280,0.0,0.0,76,0.00,,,0.00,Wunderground PWS Mod,2013-09-02 11:50:00,
2013-09-02 05:00:00,60.4,52.4,29.82,N/A,-737280,0.0,0.0,75,0.00,,,0.00,Wunderground PWS Mod,2013-09-02 12:00:00,
2013-09-02 05:10:00,60.5,52.5,29.82,N/A,-737280,0.0,0.0,75,0.00,,,0.00,Wunderground PWS Mod,2013-09-02 12:10:00,
2013-09-02 05:20:00,60.7,52.7,29.82,N/A,-737280,0.0,0.0,75,0.00,,,0.00,Wunderground PWS Mod,2013-09-02 12:20:00,
2013-09-02 05:30:00,60.7,52.7,29.82,N/A,-737280,0.0,0.0,75,0.00,,,0.00,Wunderground PWS Mod,2013-09-02 12:30:00,
2013-09-02 05:40:00,60.7,52.7,29.82,N/A,-737280,0.0,0.0,75,0.00,,,0.00,Wunderground PWS Mod,2013-09-02 12:40:00,
2013-09-02 05:50:00,60.7,52.7,29.82,N/A,-737280,0.0,0.0,75,0.00,,,0.00,Wunderground PWS Mod,2013-09-02 12:50:00,
2013-09-02 06:00:00,60.7,52.7,29.82,N/A,-737280,0.0,0.0,75,0.00,,,0.00,Wunderground PWS Mod,2013-09-02 13:00:00,
2013-09-02 06:10:00,60.7,53.1,29.82,N/A,-737280,0.0,0.0,76,0.00,,,0.00,Wunderground PWS Mod,2013-09-02 13:10:00,
2013-09-02 06:30:00,60.5,54.0,29.82,N/A,-737280,0.0,0.0,79,0.00,,,0.00,Wunderground PWS Mod,2013-09-02 13:30:00,
2013-09-02 06:40:00,60.5,53.6,29.82,N/A,-737280,0.0,0.0,78,0.00,,,0.00,Wunderground PWS Mod,2013-09-02 13:40:00,
2013-09-02 06:50:00,60.9,54.3,29.83,N/A,-737280,0.0,0.0,79,0.00,,,0.00,Wunderground PWS Mod,2013-09-02 13:50:00,
2013-09-02 07:00:00,60.9,54.7,29.83,N/A,-737280,0.0,0.0,80,0.00,,,0.00,Wunderground PWS Mod,2013-09-02 14:00:00,
2013-09-02 07:10:00,61.0,54.4,29.83,N/A,-737280,0.0,0.0,79,0.00,,,0.00,Wunderground PWS Mod,2013-09-02 14:10:00,
2013-09-02 07:20:00,61.6,55.0,29.83,N/A,-737280,0.0,0.0,79,0.00,,,0.00,Wunderground PWS Mod,2013-09-02 14:20:00,
2013-09-02 07:30:00,61.8,54.9,29.83,N/A,-737280,0.0,0.0,78,0.00,,,0.00,Wunderground PWS Mod,2013-09-02 14:30:00,
2013-09-02 07:40:00,62.3,54.6,29.83,N/A,-737280,0.0,0.0,76,0.00,,,0.00,Wunderground PWS Mod,2013-09-02 14:40:00,
2013-09-02 07:50:00,62.6,54.6,29.83,N/A,-737280,0.0,0.0,75,0.00,,,0.00,Wunderground PWS Mod,2013-09-02 14:50:00,
2013-09-02 08:00:00,62.9,55.9,29.83,N/A,-737280,0.0,0.0,78,0.00,,,0.00,Wunderground PWS Mod,2013-09-02 15:00:00,
2013-09-02 08:10:00,63.2,56.6,29.83,N/A,-737280,0.0,0.0,79,0.00,,,0.00,Wunderground PWS Mod,2013-09-02 15:10:00,
2013-09-02 08:20:00,63.2,56.2,29.83,N/A,-737280,0.0,0.0,78,0.00,,,0.00,Wunderground PWS Mod,2013-09-02 15:20:00,
2013-09-02 08:30:00,63.2,55.1,29.83,N/A,-737280,0.0,0.0,75,0.00,,,0.00,Wunderground PWS Mod,2013-09-02 15:30:00,
2013-09-02 08:40:00,63.1,55.4,29.83,N/A,-737280,0.0,0.0,76,0.00,,,0.00,Wunderground PWS Mod,2013-09-02 15:40:00,
2013-09-02 08:50:00,63.1,55.8,29.83,N/A,-737280,0.0,0.0,77,0.00,,,0.00,Wunderground PWS Mod,2013-09-02 15:50:00,
2013-09-02 09:00:00,63.2,56.6,29.83,N/A,-737280,0.0,0.0,79,0.00,,,0.00,Wunderground PWS Mod,2013-09-02 16:00:00,
2013-09-02 09:10:00,63.9,55.4,29.83,N/A,-737280,0.0,0.0,74,0.00,,,0.00,Wunderground PWS Mod,2013-09-02 16:10:00,
2013-09-02 09:20:00,66.0,55.1,29.83,N/A,-737280,0.0,0.0,68,0.00,,,0.00,Wunderground PWS Mod,2013-09-02 16:20:00,
2013-09-02 09:30:00,66.3,55.8,29.83,ENE,68,0.0,2.0,69,0.00,,,0.00,Wunderground PWS Mod,2013-09-02 16:30:00,
2013-09-02 09:40:00,66.4,56.3,29.83,ENE,68,0.0,1.0,70,0.00,,,0.00,Wunderground PWS Mod,2013-09-02 16:40:00,
2013-09-02 09:50:00,67.3,57.6,29.83,N/A,-737280,0.0,0.0,71,0.00,,,0.00,Wunderground PWS Mod,2013-09-02 16:50:00,
2013-09-02 10:00:00,67.4,56.9,29.83,N/A,-737280,0.0,0.0,69,0.00,,,0.00,Wunderground PWS Mod,2013-09-02 17:00:00,
2013-09-02 10:10:00,68.1,55.9,29.83,N/A,-737280,0.0,0.0,65,0.00,,,0.00,Wunderground PWS Mod,2013-09-02 17:10:00,
2013-09-02 10:20:00,68.4,54.9,29.83,SE,135,0.0,1.0,62,0.00,,,0.00,Wunderground PWS Mod,2013-09-02 17:20:00,
2013-09-02 10:30:00,68.4,56.2,29.83,N/A,-737280,0.0,0.0,65,0.00,,,0.00,Wunderground PWS Mod,2013-09-02 17:30:00,
2013-09-02 10:50:00,68.9,57.1,29.83,N/A,-737280,0.0,0.0,66,0.00,,,0.00,Wunderground PWS Mod,2013-09-02 17:50:00,
2013-09-02 11:10:00,69.8,55.7,29.83,SE,135,0.0,1.0,61,0.00,,,0.00,Wunderground PWS Mod,2013-09-02 18:10:00,
2013-09-02 11:20:00,70.1,56.0,29.83,SE,135,0.0,2.0,61,0.00,,,0.00,Wunderground PWS Mod,2013-09-02 18:20:00,
2013-09-02 11:30:00,70.8,58.0,29.83,NE,45,0.0,3.0,64,0.00,,,0.00,Wunderground PWS Mod,2013-09-02 18:30:00,
2013-09-02 11:40:00,70.6,57.8,29.83,NNE,23,0.0,1.0,64,0.00,,,0.00,Wunderground PWS Mod,2013-09-02 18:40:00,
2013-09-02 11:50:00,71.5,55.9,29.83,North,0,1.0,4.0,58,0.00,,,0.00,Wunderground PWS Mod,2013-09-02 18:50:00,
2013-09-02 12:00:00,71.6,57.9,29.83,ENE,68,0.0,5.0,62,0.00,,,0.00,Wunderground PWS Mod,2013-09-02 19:00:00,
2013-09-02 12:10:00,72.7,58.0,29.83,SSE,158,0.0,4.0,60,0.00,,,0.00,Wunderground PWS Mod,2013-09-02 19:10:00,
2013-09-02 12:20:00,72.0,58.7,29.83,N/A,-737280,0.0,0.0,63,0.00,,,0.00,Wunderground PWS Mod,2013-09-02 19:20:00,
2013-09-02 12:30:00,72.5,57.8,29.83,SSE,158,0.0,2.0,60,0.00,,,0.00,Wunderground PWS Mod,2013-09-02 19:30:00,
2013-09-02 12:40:00,73.0,56.4,29.83,East,90,0.0,1.0,56,0.00,,,0.00,Wunderground PWS Mod,2013-09-02 19:40:00,
2013-09-02 12:50:00,73.7,58.5,29.83,SSE,158,0.0,1.0,59,0.00,,,0.00,Wunderground PWS Mod,2013-09-02 19:50:00,
2013-09-02 13:00:00,73.5,57.8,29.82,NNE,23,1.0,3.0,58,0.00,,,0.00,Wunderground PWS Mod,2013-09-02 20:00:00,
2013-09-02 13:10:00,73.7,56.5,29.82,North,0,1.0,3.0,55,0.00,,,0.00,Wunderground PWS Mod,2013-09-02 20:10:00,
2013-09-02 13:20:00,73.3,56.2,29.83,North,0,1.0,3.0,55,0.00,,,0.00,Wunderground PWS Mod,2013-09-02 20:20:00,
2013-09-02 13:30:00,74.2,57.5,29.83,North,0,1.0,4.0,56,0.00,,,0.00,Wunderground PWS Mod,2013-09-02 20:30:00,
2013-09-02 13:40:00,74.6,58.4,29.83,North,0,1.0,3.0,57,0.00,,,0.00,Wunderground PWS Mod,2013-09-02 20:40:00,
2013-09-02 13:50:00,73.9,58.2,29.82,North,0,0.0,3.0,58,0.00,,,0.00,Wunderground PWS Mod,2013-09-02 20:50:00,
2013-09-02 14:00:00,73.9,58.2,29.82,North,0,0.0,3.0,58,0.00,,,0.00,Wunderground PWS Mod,2013-09-02 21:00:00,
2013-09-02 14:10:00,73.5,57.8,29.82,North,0,0.0,3.0,58,0.00,,,0.00,Wunderground PWS Mod,2013-09-02 21:10:00,
2013-09-02 14:20:00,73.7,58.5,29.82,North,0,1.0,4.0,59,0.00,,,0.00,Wunderground PWS Mod,2013-09-02 21:20:00,
2013-09-02 14:30:00,73.7,58.0,29.83,North,0,0.0,2.0,58,0.00,,,0.00,Wunderground PWS Mod,2013-09-02 21:30:00,
2013-09-02 14:40:00,74.7,56.4,29.83,NW,315,0.0,2.0,53,0.00,,,0.00,Wunderground PWS Mod,2013-09-02 21:40:00,
2013-09-02 14:50:00,75.1,58.3,29.82,SW,225,0.0,1.0,56,0.00,,,0.00,Wunderground PWS Mod,2013-09-02 21:50:00,
2013-09-02 15:00:00,74.7,57.5,29.82,NNE,23,2.0,6.0,55,0.00,,,0.00,Wunderground PWS Mod,2013-09-02 22:00:00,
2013-09-02 15:10:00,75.6,58.3,29.82,NNW,338,1.0,4.0,55,0.00,,,0.00,Wunderground PWS Mod,2013-09-02 22:10:00,
2013-09-02 15:20:00,75.6,58.3,29.82,NW,315,1.0,3.0,55,0.00,,,0.00,Wunderground PWS Mod,2013-09-02 22:20:00,
2013-09-02 15:30:00,76.0,57.6,29.82,North,0,1.0,4.0,53,0.00,,,0.00,Wunderground PWS Mod,2013-09-02 22:30:00,
2013-09-02 15:40:00,77.0,57.5,29.82,North,0,0.0,3.0,51,0.00,,,0.00,Wunderground PWS Mod,2013-09-02 22:40:00,
2013-09-02 15:50:00,76.8,55.6,29.82,East,90,0.0,2.0,48,0.00,,,0.00,Wunderground PWS Mod,2013-09-02 22:50:00,
2013-09-02 16:00:00,76.7,55.5,29.82,NNE,23,0.0,4.0,48,0.00,,,0.00,Wunderground PWS Mod,2013-09-02 23:00:00,
2013-09-02 16:10:00,76.7,57.7,29.82,ENE,68,0.0,4.0,52,0.00,,,0.00,Wunderground PWS Mod,2013-09-02 23:10:00,
2013-09-02 16:20:00,76.7,56.7,29.82,East,90,0.0,2.0,50,0.00,,,0.00,Wunderground PWS Mod,2013-09-02 23:20:00,
2013-09-02 16:30:00,76.7,55.0,29.82,NNW,338,1.0,4.0,47,0.00,,,0.00,Wunderground PWS Mod,2013-09-02 23:30:00,
2013-09-02 16:40:00,76.0,56.6,29.82,NE,45,1.0,5.0,51,0.00,,,0.00,Wunderground PWS Mod,2013-09-02 23:40:00,
2013-09-02 16:50:00,75.8,58.5,29.82,N/A,-737280,0.0,0.0,55,0.00,,,0.00,Wunderground PWS Mod,2013-09-02 23:50:00,
2013-09-02 17:00:00,76.0,57.1,29.82,SE,135,1.0,2.0,52,0.00,,,0.00,Wunderground PWS Mod,2013-09-03 00:00:00,
2013-09-02 17:10:00,74.6,56.9,29.82,SE,135,0.0,1.0,54,0.00,,,0.00,Wunderground PWS Mod,2013-09-03 00:10:00,
2013-09-02 17:20:00,73.7,55.5,29.83,N/A,-737280,0.0,0.0,53,0.00,,,0.00,Wunderground PWS Mod,2013-09-03 00:20:00,
2013-09-02 17:30:00,73.0,56.9,29.83,SE,135,0.0,1.0,57,0.00,,,0.00,Wunderground PWS Mod,2013-09-03 00:30:00,
2013-09-02 17:40:00,73.7,56.5,29.83,SE,135,0.0,1.0,55,0.00,,,0.00,Wunderground PWS Mod,2013-09-03 00:40:00,
2013-09-02 17:50:00,74.2,57.5,29.83,NW,315,0.0,3.0,56,0.00,,,0.00,Wunderground PWS Mod,2013-09-03 00:50:00,
2013-09-02 18:00:00,73.7,58.5,29.83,NNW,338,0.0,1.0,59,0.00,,,0.00,Wunderground PWS Mod,2013-09-03 01:00:00,
2013-09-02 18:10:00,73.5,58.8,29.83,NNW,338,0.0,1.0,60,0.00,,,0.00,Wunderground PWS Mod,2013-09-03 01:10:00,
2013-09-02 18:20:00,73.0,55.9,29.83,East,90,0.0,1.0,55,0.00,,,0.00,Wunderground PWS Mod,2013-09-03 01:20:00,
2013-09-02 18:30:00,72.7,58.5,29.83,N/A,-737280,0.0,0.0,61,0.00,,,0.00,Wunderground PWS Mod,2013-09-03 01:30:00,
2013-09-02 18:40:00,72.1,57.9,29.83,N/A,-737280,0.0,0.0,61,0.00,,,0.00,Wunderground PWS Mod,2013-09-03 01:40:00,
2013-09-02 18:50:00,72.0,58.3,29.83,East,90,0.0,1.0,62,0.00,,,0.00,Wunderground PWS Mod,2013-09-03 01:50:00,
2013-09-02 19:00:00,71.5,60.0,29.83,East,90,0.0,1.0,67,0.00,,,0.00,Wunderground PWS Mod,2013-09-03 02:00:00,
2013-09-02 19:10:00,71.3,57.6,29.83,N/A,-737280,0.0,0.0,62,0.00,,,0.00,Wunderground PWS Mod,2013-09-03 02:10:00,
2013-09-02 19:20:00,70.9,58.1,29.83,N/A,-737280,0.0,0.0,64,0.00,,,0.00,Wunderground PWS Mod,2013-09-03 02:20:00,
2013-09-02 19:30:00,69.4,58.8,29.83,N/A,-737280,0.0,0.0,69,0.00,,,0.00,Wunderground PWS Mod,2013-09-03 02:30:00,
2013-09-02 19:40:00,68.6,58.0,29.83,N/A,-737280,0.0,0.0,69,0.00,,,0.00,Wunderground PWS Mod,2013-09-03 02:40:00,
2013-09-02 19:50:00,67.6,57.1,29.84,N/A,-737280,0.0,0.0,69,0.00,,,0.00,Wunderground PWS Mod,2013-09-03 02:50:00,
2013-09-02 20:00:00,67.1,57.4,29.84,N/A,-737280,0.0,0.0,71,0.00,,,0.00,Wunderground PWS Mod,2013-09-03 03:00:00,
2013-09-02 20:10:00,66.8,57.1,29.84,N/A,-737280,0.0,0.0,71,0.00,,,0.00,Wunderground PWS Mod,2013-09-03 03:10:00,
2013-09-02 20:20:00,66.0,56.3,29.85,N/A,-737280,0.0,0.0,71,0.00,,,0.00,Wunderground PWS Mod,2013-09-03 03:20:00,
2013-09-02 20:30:00,65.5,55.8,29.85,N/A,-737280,0.0,0.0,71,0.00,,,0.00,Wunderground PWS Mod,2013-09-03 03:30:00,
2013-09-02 20:40:00,65.3,56.0,29.85,N/A,-737280,0.0,0.0,72,0.00,,,0.00,Wunderground PWS Mod,2013-09-03 03:40:00,
2013-09-02 20:50:00,65.3,56.0,29.85,N/A,-737280,0.0,0.0,72,0.00,,,0.00,Wunderground PWS Mod,2013-09-03 03:50:00,
2013-09-02 21:00:00,65.0,55.8,29.85,N/A,-737280,0.0,0.0,72,0.00,,,0.00,Wunderground PWS Mod,2013-09-03 04:00:00,
2013-09-02 21:10:00,64.5,55.7,29.85,N/A,-737280,0.0,0.0,73,0.00,,,0.00,Wunderground PWS Mod,2013-09-03 04:10:00,
2013-09-02 21:20:00,64.3,55.8,29.86,N/A,-737280,0.0,0.0,74,0.00,,,0.00,Wunderground PWS Mod,2013-09-03 04:20:00,
2013-09-02 21:30:00,64.2,56.1,29.86,N/A,-737280,0.0,0.0,75,0.00,,,0.00,Wunderground PWS Mod,2013-09-03 04:30:00,
2013-09-02 21:40:00,63.7,55.6,29.86,N/A,-737280,0.0,0.0,75,0.00,,,0.00,Wunderground PWS Mod,2013-09-03 04:40:00,
2013-09-02 21:50:00,63.4,55.7,29.87,N/A,-737280,0.0,0.0,76,0.00,,,0.00,Wunderground PWS Mod,2013-09-03 04:50:00,
2013-09-02 22:00:00,63.2,55.1,29.87,N/A,-737280,0.0,0.0,75,0.00,,,0.00,Wunderground PWS Mod,2013-09-03 05:00:00,
2013-09-02 22:10:00,62.7,55.0,29.87,N/A,-737280,0.0,0.0,76,0.00,,,0.00,Wunderground PWS Mod,2013-09-03 05:10:00,
2013-09-02 22:20:00,62.6,55.3,29.87,N/A,-737280,0.0,0.0,77,0.00,,,0.00,Wunderground PWS Mod,2013-09-03 05:20:00,
2013-09-02 22:30:00,62.4,55.4,29.88,N/A,-737280,0.0,0.0,78,0.00,,,0.00,Wunderground PWS Mod,2013-09-03 05:30:00,
2013-09-02 22:40:00,62.3,55.7,29.88,N/A,-737280,0.0,0.0,79,0.00,,,0.00,Wunderground PWS Mod,2013-09-03 05:40:00,
2013-09-02 22:50:00,62.0,54.7,29.88,N/A,-737280,0.0,0.0,77,0.00,,,0.00,Wunderground PWS Mod,2013-09-03 05:50:00,
2013-09-02 23:00:00,62.1,55.2,29.89,N/A,-737280,0.0,0.0,78,0.00,,,0.00,Wunderground PWS Mod,2013-09-03 06:00:00,
2013-09-02 23:10:00,62.0,55.1,29.89,N/A,-737280,0.0,0.0,78,0.00,,,0.00,Wunderground PWS Mod,2013-09-03 06:10:00,
2013-09-02 23:20:00,61.8,55.2,29.88,N/A,-737280,0.0,0.0,79,0.00,,,0.00,Wunderground PWS Mod,2013-09-03 06:20:00,
2013-09-02 23:30:00,62.0,55.8,29.88,N/A,-737280,0.0,0.0,80,0.00,,,0.00,Wunderground PWS Mod,2013-09-03 06:30:00,
2013-09-02 23:40:00,62.1,55.9,29.88,N/A,-737280,0.0,0.0,80,0.00,,,0.00,Wunderground PWS Mod,2013-09-03 06:40:00,
2013-09-02 23:50:00,62.0,56.4,29.88,N/A,-737280,0.0,0.0,82,0.00,,,0.00,Wunderground PWS Mod,2013-09-03 06:50:00,